TimeCST,TemperatureF,Dew PointF,Humidity,Sea Level PressureIn,VisibilityMPH,Wind Direction,Wind SpeedMPH,Gust SpeedMPH,PrecipitationIn,Events,Conditions,WindDirDegrees,DateUTC
12:15 AM,1.4,-0.4,92,29.81,10.0,SSW,8.1,-,N/A,,Clear,200,2013-02-23 06:15:00
12:35 AM,3.2,-0.4,85,29.81,10.0,SSW,11.5,-,N/A,,Clear,200,2013-02-23 06:35:00
12:55 AM,5.0,-0.4,78,29.80,10.0,South,6.9,-,N/A,,Clear,190,2013-02-23 06:55:00
1:15 AM,3.2,-0.4,85,29.79,10.0,SSW,10.4,-,N/A,,Clear,200,2013-02-23 07:15:00
1:35 AM,3.2,-0.4,85,29.79,10.0,SSW,9.2,-,N/A,,Clear,210,2013-02-23 07:35:00
1:55 AM,3.2,-0.4,85,29.78,10.0,SW,10.4,-,N/A,,Clear,220,2013-02-23 07:55:00
2:15 AM,5.0,-0.4,78,29.79,10.0,SSW,10.4,-,N/A,,Clear,200,2013-02-23 08:15:00
2:35 AM,5.0,-0.4,78,29.78,10.0,SSW,13.8,-,N/A,,Clear,210,2013-02-23 08:35:00
2:55 AM,5.0,-0.4,78,29.77,10.0,SSW,10.4,-,N/A,,Clear,200,2013-02-23 08:55:00
3:15 AM,3.2,-0.4,85,29.77,10.0,SSW,8.1,-,N/A,,Clear,200,2013-02-23 09:15:00
3:35 AM,5.0,-0.4,78,29.76,10.0,SSW,8.1,-,N/A,,Clear,200,2013-02-23 09:35:00
3:55 AM,5.0,-0.4,78,29.76,10.0,South,8.1,-,N/A,,Clear,190,2013-02-23 09:55:00
4:15 AM,3.2,-0.4,85,29.75,10.0,South,8.1,-,N/A,,Clear,180,2013-02-23 10:15:00
4:35 AM,1.4,-0.4,92,29.75,10.0,South,8.1,-,N/A,,Clear,190,2013-02-23 10:35:00
4:55 AM,-0.4,-2.2,92,29.75,10.0,South,9.2,-,N/A,,Clear,190,2013-02-23 10:55:00
5:15 AM,-0.4,-2.2,92,29.75,10.0,SSW,6.9,-,N/A,,Clear,200,2013-02-23 11:15:00
5:35 AM,1.4,-0.4,92,29.75,10.0,SSW,8.1,-,N/A,,Clear,210,2013-02-23 11:35:00
5:55 AM,1.4,-0.4,92,29.75,10.0,SSW,10.4,-,N/A,,Clear,210,2013-02-23 11:55:00
6:15 AM,-0.4,-2.2,92,29.74,10.0,SSW,9.2,-,N/A,,Clear,210,2013-02-23 12:15:00
6:35 AM,1.4,-0.4,92,29.74,10.0,SSW,10.4,-,N/A,,Clear,200,2013-02-23 12:35:00
6:55 AM,-0.4,-2.2,92,29.74,10.0,SW,9.2,-,N/A,,Clear,220,2013-02-23 12:55:00
7:15 AM,-0.4,-2.2,92,29.75,10.0,SW,10.4,-,N/A,,Clear,220,2013-02-23 13:15:00
7:35 AM,1.4,-0.4,92,29.74,10.0,SSW,8.1,-,N/A,,Clear,210,2013-02-23 13:35:00
7:55 AM,1.4,-0.4,92,29.74,10.0,SSW,6.9,-,N/A,,Clear,200,2013-02-23 13:55:00
8:15 AM,5.0,1.4,85,29.74,10.0,SSW,6.9,-,N/A,,Clear,210,2013-02-23 14:15:00
8:35 AM,3.2,1.4,92,29.73,10.0,SW,9.2,-,N/A,,Clear,220,2013-02-23 14:35:00
8:55 AM,6.8,5.0,92,29.73,10.0,SW,10.4,-,N/A,,Clear,220,2013-02-23 14:55:00
9:15 AM,10.4,10.4,100,29.73,10.0,SSW,10.4,-,N/A,,Clear,200,2013-02-23 15:15:00
9:35 AM,10.4,10.4,100,29.74,10.0,South,11.5,-,N/A,,Clear,190,2013-02-23 15:35:00
9:55 AM,8.6,6.8,92,29.74,10.0,South,6.9,-,N/A,,Clear,170,2013-02-23 15:55:00
10:15 AM,6.8,5.0,92,29.74,10.0,South,8.1,-,N/A,,Mostly Cloudy,170,2013-02-23 16:15:00
10:35 AM,6.8,6.8,100,29.74,10.0,SSW,9.2,-,N/A,,Overcast,200,2013-02-23 16:35:00
10:55 AM,8.6,6.8,92,29.74,10.0,SSW,9.2,-,N/A,,Overcast,200,2013-02-23 16:55:00
11:15 AM,8.6,6.8,92,29.74,10.0,SSW,8.1,-,N/A,,Overcast,200,2013-02-23 17:15:00
11:35 AM,10.4,8.6,92,29.74,10.0,SSW,10.4,-,N/A,,Overcast,200,2013-02-23 17:35:00
11:55 AM,12.2,10.4,92,29.74,10.0,South,6.9,-,N/A,,Overcast,190,2013-02-23 17:55:00
12:15 PM,14.0,10.4,86,29.73,10.0,SSW,9.2,-,N/A,,Mostly Cloudy,200,2013-02-23 18:15:00
12:35 PM,14.0,12.2,93,29.73,10.0,South,10.4,-,N/A,,Clear,190,2013-02-23 18:35:00
12:55 PM,14.0,12.2,93,29.73,10.0,South,9.2,-,N/A,,Clear,170,2013-02-23 18:55:00
1:15 PM,14.0,12.2,93,29.74,10.0,South,9.2,-,N/A,,Clear,190,2013-02-23 19:15:00
1:35 PM,14.0,12.2,93,29.73,10.0,South,8.1,-,N/A,,Clear,190,2013-02-23 19:35:00
1:55 PM,15.8,14.0,93,29.73,10.0,SSW,6.9,-,N/A,,Clear,200,2013-02-23 19:55:00
2:15 PM,15.8,14.0,93,29.73,10.0,SSW,11.5,-,N/A,,Clear,210,2013-02-23 20:15:00
2:35 PM,15.8,14.0,93,29.73,10.0,SSW,10.4,-,N/A,,Clear,200,2013-02-23 20:35:00
2:55 PM,17.6,15.8,93,29.73,10.0,South,9.2,-,N/A,,Clear,170,2013-02-23 20:55:00
3:15 PM,17.6,15.8,93,29.74,10.0,South,9.2,-,N/A,,Clear,190,2013-02-23 21:15:00
3:35 PM,17.6,17.6,100,29.74,10.0,South,9.2,-,N/A,,Clear,170,2013-02-23 21:35:00
3:55 PM,19.4,17.6,93,29.74,10.0,South,9.2,-,N/A,,Clear,180,2013-02-23 21:55:00
4:15 PM,19.4,17.6,93,29.75,10.0,South,9.2,-,N/A,,Clear,170,2013-02-23 22:15:00
4:35 PM,19.4,17.6,93,29.75,10.0,South,8.1,-,N/A,,Clear,170,2013-02-23 22:35:00
4:55 PM,19.4,17.6,93,29.75,10.0,South,8.1,-,N/A,,Clear,170,2013-02-23 22:55:00
5:15 PM,17.6,17.6,100,29.75,10.0,South,6.9,-,N/A,,Clear,180,2013-02-23 23:15:00
5:35 PM,17.6,17.6,100,29.75,10.0,South,5.8,-,N/A,,Clear,170,2013-02-23 23:35:00
5:55 PM,17.6,15.8,93,29.76,10.0,South,5.8,-,N/A,,Clear,190,2013-02-23 23:55:00
6:15 PM,14.0,14.0,100,29.76,10.0,South,4.6,-,N/A,,Clear,190,2013-02-24 00:15:00
6:35 PM,14.0,14.0,100,29.77,10.0,SSW,5.8,-,N/A,,Clear,200,2013-02-24 00:35:00
6:55 PM,12.2,12.2,100,29.77,10.0,SSW,5.8,-,N/A,,Clear,200,2013-02-24 00:55:00
7:15 PM,14.0,14.0,100,29.78,10.0,SSW,5.8,-,N/A,,Clear,200,2013-02-24 01:15:00
7:35 PM,10.4,10.4,100,29.78,10.0,SSW,5.8,-,N/A,,Clear,200,2013-02-24 01:35:00
7:55 PM,12.2,12.2,100,29.79,10.0,SSW,8.1,-,N/A,,Clear,200,2013-02-24 01:55:00
8:15 PM,12.2,12.2,100,29.79,10.0,South,6.9,-,N/A,,Clear,190,2013-02-24 02:15:00
8:35 PM,10.4,10.4,100,29.80,10.0,SSW,8.1,-,N/A,,Clear,210,2013-02-24 02:35:00
9:15 PM,12.2,12.2,100,29.80,10.0,SSW,10.4,-,N/A,,Clear,210,2013-02-24 03:15:00
9:35 PM,14.0,12.2,93,29.81,10.0,SSW,9.2,-,N/A,,Clear,200,2013-02-24 03:35:00
9:55 PM,10.4,10.4,100,29.81,10.0,SSW,9.2,-,N/A,,Clear,210,2013-02-24 03:55:00
10:15 PM,10.4,10.4,100,29.81,10.0,SSW,9.2,-,N/A,,Clear,210,2013-02-24 04:15:00
10:35 PM,10.4,10.4,100,29.81,10.0,SSW,10.4,-,N/A,,Clear,210,2013-02-24 04:35:00
10:55 PM,10.4,10.4,100,29.81,10.0,SSW,8.1,-,N/A,,Clear,200,2013-02-24 04:55:00
11:15 PM,8.6,8.6,100,29.81,10.0,South,6.9,-,N/A,,Clear,190,2013-02-24 05:15:00
11:35 PM,8.6,6.8,92,29.81,10.0,SSW,8.1,-,N/A,,Clear,200,2013-02-24 05:35:00
11:55 PM,10.4,10.4,100,29.81,10.0,South,8.1,-,N/A,,Clear,190,2013-02-24 05:55:00